Nuiqsut, AK

1:03 AM AKST on February 25, 2018 (GMT -0900)
Nuiqsut

Weather History for PAQT - April, 2013

Change the Weather History Date:

Tuesday, April 30, 2013

  Actual Average (PAKU) Record (PAKU)
Temperature  
Mean Temperature -4 °F -  
Max Temperature 1 °F 14 °F 35 °F (2014)
Min Temperature -9 °F 3 °F -17 °F (1985)
Degree Days  
Heating Degree Days 68    
Moisture  
Dew Point -5 °F    
Average Humidity 84    
Maximum Humidity 92    
Minimum Humidity 72    
Precipitation  
Precipitation 0.00 in - - ()
Sea Level Pressure  
Sea Level Pressure 30.41 in    
Wind  
Wind Speed 12 mph (NE)    
Max Wind Speed 18 mph    
Max Gust Speed -    
Visibility 8 miles    
Events Snow    
Averages and records for this station are not official NWS values.
T = Trace of Precipitation, MM = Missing Value Source: NWS Daily Summary

Daily Weather History Graph

Daily Weather History Graph

Search for Another Location

Airport or City:

Trip Planner

Search our weather history database for the weather conditions in past years. The results will help you decide how hot, cold, wet, or windy it might be!

Date:

Astronomy

Apr. 30, 2013 Rise Set
Actual Time 4:34 AM AKDT 11:32 PM AKDT
Civil Twilight 2:33 AM AKDT 1:28 AM AKDT
Nautical Twilight Sun does not rise Sun does not rise
Astronomical Twilight Sun does not rise Sun does not rise
Moon 4:59 AM AKDT (4/30) 8:22 AM AKDT (4/30)
Length of Visible Light 22h 55m
Length of Day
18h 58m
Waning Gibbous, 68% of the Moon is Illuminated
Apr 30
Waning Gibbous
May 2
Last Quarter
May 9
New
May 17
First Quarter
May 24
Full

Hourly Weather History & Observations

Time (AKDT) Temp. Windchill Dew Point Humidity Pressure Visibility Wind Dir Wind Speed Gust Speed Precip Events Conditions
12:53 AM 1.9 °F -14.7 °F -0.9 °F 88% 30.31 in 4.0 mi NE 11.5 mph - 0.00 in   Overcast
1:13 AM 1.4 °F -15.3 °F -0.4 °F 92% 30.31 in 7.0 mi NE 11.5 mph - 0.00 in Snow Light Snow
1:25 AM 1.4 °F -14.5 °F -2.2 °F 85% 30.32 in 8.0 mi NE 10.4 mph - 0.00 in   Mostly Cloudy
1:53 AM -0.0 °F -17.1 °F -2.0 °F 91% 30.33 in 5.0 mi NE 11.5 mph - 0.00 in   Mostly Cloudy
2:53 AM -0.0 °F -18.7 °F -2.9 °F 88% 30.34 in 8.0 mi NE 13.8 mph - 0.00 in   Overcast
3:31 AM 1.4 °F -16.9 °F -2.2 °F 85% 30.34 in 2.0 mi NE 13.8 mph - 0.00 in Snow Light Snow
3:38 AM -0.4 °F -19.2 °F -2.2 °F 92% 30.35 in 2.0 mi NE 13.8 mph - 0.00 in Snow Light Snow
3:53 AM -2.0 °F -20.5 °F -4.0 °F 91% 30.35 in 3.0 mi NE 12.7 mph - 0.00 in Snow Light Snow
4:15 AM -5.8 °F -24.4 °F -7.6 °F 92% 30.35 in 8.0 mi NE 11.5 mph - 0.00 in   Scattered Clouds
4:53 AM -2.0 °F -19.6 °F -5.1 °F 87% 30.37 in 9.0 mi NE 11.5 mph - 0.00 in   Mostly Cloudy
5:17 AM 1.4 °F -17.6 °F -0.4 °F 92% 30.36 in 2.0 mi ENE 15.0 mph - 0.00 in Snow Light Snow
7:53 AM -0.9 °F -21.2 °F -4.0 °F 87% 30.40 in 10.0 mi NE 16.1 mph - N/A   Overcast
8:53 AM -0.0 °F -21.3 °F -4.0 °F 83% 30.41 in 8.0 mi NE 18.4 mph - N/A   Overcast
10:53 AM -2.0 °F -22.6 °F -6.0 °F 83% 30.43 in 10.0 mi NE 16.1 mph - N/A   Clear
11:53 AM -0.9 °F -21.2 °F -6.0 °F 79% 30.45 in 10.0 mi NE 16.1 mph - N/A   Clear
12:53 PM -0.0 °F -20.7 °F -6.0 °F 76% 30.46 in 10.0 mi NE 17.3 mph - N/A   Clear
1:53 PM 1.0 °F -19.3 °F -6.0 °F 72% 30.47 in 10.0 mi NE 17.3 mph - N/A   Clear
2:53 PM 1.0 °F -19.9 °F -6.0 °F 72% 30.48 in 10.0 mi NE 18.4 mph - N/A   Clear
3:53 PM 1.0 °F -17.3 °F -6.0 °F 72% 30.48 in 10.0 mi NE 13.8 mph - N/A   Clear
4:53 PM 1.0 °F -15.8 °F -5.1 °F 75% 30.48 in 10.0 mi NE 11.5 mph - N/A   Clear
5:53 PM 1.0 °F -14.9 °F -5.1 °F 75% 30.48 in 10.0 mi NE 10.4 mph - N/A   Clear
6:53 PM 1.0 °F -12.9 °F -5.1 °F 75% 30.47 in 10.0 mi NNE 8.1 mph - N/A   Clear
8:53 PM -0.9 °F -14.1 °F -7.1 °F 75% 30.46 in 10.0 mi North 6.9 mph - N/A   Clear
9:53 PM -5.1 °F -13.6 °F -8.0 °F 87% 30.46 in 10.0 mi NNW 3.5 mph - N/A   Clear
10:53 PM -8.0 °F -21.0 °F -11.0 °F 86% 30.45 in 10.0 mi NNW 5.8 mph - N/A   Clear
11:53 PM -9.9 °F -24.9 °F -11.9 °F 91% 30.45 in 10.0 mi NW 6.9 mph - N/A   Clear